• Join FlightAware (Why Join?)
  • Login
  • US Flag 
01:40AM EDT


 

Airport Tracker/Info


-or-


 

Live Flight TrackerFlight Track Log ✈ UPS558 ✈ 16-Jul-2013 ✈ KPHL - KMSP

Flight Track Log - Related Links

Times and Time Zones

All times are in EDT time to prevent confusion due to time zone crossing. See the UPS558 flight status page for this flight to view local times or setup timezone preferences in your user account.

Time Position Orientation Groundspeed Altitude Reporting Facility
EDT Latitude Longitude Course Direction KTS MPH feet Rate Location/Type
03:20AM 39.8667 -75.2667 237° Southwest 159 183 700  Level Philadelphia TRACON
03:21AM 39.8167 -75.3667 237° Southwest 236 272 3,500 1,860 Climbing Philadelphia TRACON
03:22AM 39.8667 -75.4167 322° Northwest 253 291 5,300 2,160 Climbing Philadelphia TRACON
03:23AM 39.9333 -75.4500 339° North 262 302 7,900 2,280 Climbing Philadelphia TRACON
03:24AM 39.9617 -75.4642 339° North 267 307 9,100 1,740 Climbing New York Center
03:25AM 40.0458 -75.4972 343° North 290 334 10,800 1,380 Climbing New York Center
03:26AM 40.1261 -75.5269 344° North 342 394 11,800 1,620 Climbing New York Center
03:27AM 40.2322 -75.5806 339° North 364 419 14,100 2,040 Climbing New York Center
03:28AM 40.3011 -75.6778 313° West 364 419 15,900 1,800 Climbing New York Center
03:29AM 40.3694 -75.7864 310° West 375 432 17,700 1,680 Climbing New York Center
03:30AM 40.4417 -75.9006 310° West 392 451 19,300 1,680 Climbing New York Center
03:31AM 40.4664 -76.0497 282° West 404 465 21,100 1,680 Climbing New York Center
03:32AM 40.4906 -76.2072 281° West 413 475 22,700 1,440 Climbing New York Center
03:33AM 40.5144 -76.3675 281° West 435 501 24,100 1,440 Climbing New York Center
03:34AM 40.5400 -76.5306 282° West 447 514 25,600 1,380 Climbing New York Center
03:35AM 40.5756 -76.6950 286° West 463 533 26,900 1,260 Climbing New York Center
03:36AM 40.6211 -76.8631 290° West 475 547 28,200 1,320 Climbing New York Center
03:37AM 40.6667 -77.0283 290° West 475 547 29,600 1,500 Climbing New York Center
03:38AM 40.7097 -77.1967 289° West 480 552 31,200 1,200 Climbing New York Center
03:39AM 40.7531 -77.3597 289° West 480 552 32,000 360 Climbing New York Center
03:40AM 40.7958 -77.5228 289° West 475 547 32,000  Level New York Center
03:42AM 40.8808 -77.8533 289° West 478 550 32,000  Level Cleveland Center
03:43AM 40.9183 -78.0219 286° West 484 557 32,000  Level Cleveland Center
03:44AM 40.9408 -78.1972 280° West 484 557 32,000  Level Cleveland Center
03:45AM 40.9675 -78.3858 281° West 484 557 32,000  Level Cleveland Center
03:46AM 40.9872 -78.5586 279° West 484 557 32,000  Level Cleveland Center
03:47AM 41.0050 -78.7342 278° West 484 557 32,000  Level Cleveland Center
03:48AM 41.0222 -78.9069 278° West 484 557 32,000  Level Cleveland Center
03:49AM 41.0433 -79.0828 279° West 479 551 32,000  Level Cleveland Center
03:50AM 41.0600 -79.2531 277° West 479 551 32,000  Level Cleveland Center
03:51AM 41.0786 -79.4233 278° West 479 551 32,000  Level Cleveland Center
03:52AM 41.0947 -79.5994 277° West 479 551 32,000  Level Cleveland Center
03:53AM 41.1108 -79.7703 277° West 479 551 32,000  Level Cleveland Center
03:54AM 41.1264 -79.9408 277° West 479 551 32,000  Level Cleveland Center
03:55AM 41.1419 -80.1144 277° West 479 551 32,000  Level Cleveland Center
03:56AM 41.1592 -80.2853 278° West 479 551 32,000  Level Cleveland Center
03:57AM 41.1742 -80.4589 277° West 479 551 32,000  Level Cleveland Center
03:58AM 41.1886 -80.6272 277° West 479 551 32,000  Level Cleveland Center
03:59AM 41.2053 -80.8067 277° West 479 551 32,000  Level Cleveland Center
04:00AM 41.2192 -80.9778 276° West 479 551 32,000  Level Cleveland Center
04:01AM 41.2353 -81.1492 277° West 479 551 32,000  Level Cleveland Center
04:02AM 41.2508 -81.3261 277° West 479 551 32,000  Level Cleveland Center
04:03AM 41.2664 -81.4947 277° West 479 551 32,000  Level Cleveland Center
04:04AM 41.2814 -81.6689 277° West 479 551 32,000  Level Cleveland Center
04:05AM 41.2942 -81.8433 276° West 479 551 32,000  Level Cleveland Center
04:06AM 41.3047 -82.0206 275° West 479 551 32,000  Level Cleveland Center
04:07AM 41.3169 -82.2031 275° West 485 558 32,000  Level Cleveland Center
04:08AM 41.3289 -82.3778 275° West 493 567 32,000  Level Cleveland Center
04:09AM 41.3406 -82.5522 275° West 483 556 32,000  Level Cleveland Center
04:10AM 41.3539 -82.7325 276° West 483 556 32,000  Level Cleveland Center
04:11AM 41.3653 -82.9044 275° West 483 556 32,000  Level Cleveland Center
04:12AM 41.3761 -83.0792 275° West 483 556 32,000  Level Cleveland Center
04:13AM 41.3850 -83.2372 274° West 483 556 32,000  Level Cleveland Center
04:14AM 41.3953 -83.4178 274° West 483 556 32,000  Level Cleveland Center
04:15AM 41.4056 -83.5925 275° West 483 556 32,000  Level Cleveland Center
04:16AM 41.4153 -83.7703 274° West 483 556 32,000  Level Cleveland Center
04:17AM 41.4306 -83.9669 276° West 482 555 32,000  Level Chicago Center
04:18AM 41.4403 -84.1447 274° West 481 554 32,000  Level Chicago Center
04:19AM 41.4494 -84.3239 274° West 484 557 32,000  Level Chicago Center
04:20AM 41.4594 -84.5014 274° West 482 555 32,000  Level Chicago Center
04:21AM 41.5081 -84.6647 292° West 491 565 32,000  Level Chicago Center
04:22AM 41.5864 -84.8094 306° West 483 556 32,000  Level Chicago Center
04:23AM 41.6661 -84.9508 307° West 481 554 32,000  Level Chicago Center
04:24AM 41.7450 -85.0947 306° West 484 557 32,000  Level Chicago Center
04:25AM 41.8233 -85.2361 307° West 482 555 32,000  Level Chicago Center
04:26AM 41.8936 -85.3842 303° West 480 552 32,000  Level Chicago Center
04:27AM 41.9586 -85.5375 300° West 479 551 32,000  Level Chicago Center
04:28AM 42.0306 -85.7086 300° West 479 551 32,000  Level Chicago Center
04:29AM 42.0972 -85.8636 300° West 479 551 32,000  Level Chicago Center
04:30AM 42.1556 -85.9989 300° West 474 545 32,000  Level Chicago Center
04:31AM 42.2336 -86.1844 300° West 475 547 32,000  Level Chicago Center
04:32AM 42.2947 -86.3278 300° West 475 547 32,000  Level Chicago Center
04:33AM 42.3592 -86.4831 299° West 472 543 32,000  Level Chicago Center
04:34AM 42.4253 -86.6389 300° West 474 545 32,000  Level Chicago Center
04:35AM 42.4922 -86.7956 300° West 480 552 32,000  Level Chicago Center
04:36AM 42.5564 -86.9500 299° West 476 548 32,000  Level Chicago Center
04:37AM 42.6186 -87.1075 298° West 465 535 32,000  Level Chicago Center
04:38AM 42.6817 -87.2653 299° West 472 543 32,000  Level Chicago Center
04:39AM 42.7419 -87.4156 299° West 476 548 32,000  Level Chicago Center
04:40AM 42.8164 -87.6008 299° West 476 548 32,000  Level Chicago Center
04:41AM 42.8806 -87.7597 299° West 477 549 32,000  Level Chicago Center
04:42AM 42.9450 -87.9172 299° West 474 545 32,000  Level Chicago Center
04:43AM 43.0097 -88.0761 299° West 476 548 32,000  Level Chicago Center
04:44AM 43.0725 -88.2347 298° West 472 543 32,000  Level Chicago Center
04:45AM 43.1369 -88.3936 299° West 473 544 32,000  Level Chicago Center
04:46AM 43.2014 -88.5533 299° West 472 543 32,000  Level Chicago Center
04:47AM 43.2547 -88.6878 299° West 475 547 32,000  Level Chicago Center
04:48AM 43.3175 -88.8500 298° West 475 547 32,000  Level Chicago Center
04:49AM 43.3803 -89.0086 299° West 470 541 32,000  Level Chicago Center
04:50AM 43.4411 -89.1675 298° West 469 540 32,000  Level Chicago Center
04:51AM 43.5014 -89.3261 298° West 467 537 32,000  Level Chicago Center
04:52AM 43.5611 -89.4858 297° West 468 539 32,000  Level Chicago Center
04:53AM 43.6200 -89.6461 297° West 468 539 32,000  Level Chicago Center
04:54AM 43.6808 -89.8047 298° West 467 537 32,000  Level Chicago Center
04:55AM 43.7419 -89.9650 298° West 470 541 32,000  Level Chicago Center
04:56AM 43.8006 -90.1261 297° West 469 540 32,000  Level Chicago Center
04:57AM 43.8619 -90.2917 297° West 470 541 32,000  Level Chicago Center
04:58AM 43.9192 -90.4517 296° West 469 540 32,000  Level Chicago Center
05:00AM 43.9883 -90.6414 297° West 468 539 32,000  Level Minneapolis Center
05:01AM 44.0467 -90.8000 297° West 467 537 32,000  Level Minneapolis Center
05:02AM 44.1036 -90.9589 297° West 465 535 32,000 -420 Level Minneapolis Center
05:03AM 44.1603 -91.1183 296° West 465 535 31,200 -1,740 Descending Minneapolis Center
05:04AM 44.2217 -91.2919 296° West 463 533 28,500 -2,580 Descending Minneapolis Center
05:05AM 44.2764 -91.4486 296° West 456 525 26,000 -2,460 Descending Minneapolis Center
05:06AM 44.3306 -91.5992 297° West 443 510 23,600 -2,400 Descending Minneapolis Center
05:07AM 44.3808 -91.7478 295° West 429 494 21,200 -2,340 Descending Minneapolis Center
05:08AM 44.4303 -91.8903 296° West 414 476 18,900 -2,280 Descending Minneapolis Center
05:09AM 44.4783 -92.0292 296° West 401 461 16,700 -2,220 Descending Minneapolis Center
05:10AM 44.5261 -92.1647 296° West 391 450 14,500 -2,220 Descending Minneapolis Center
05:11AM 44.5708 -92.2956 296° West 377 434 12,300 -2,040 Descending Minneapolis Center
05:12AM 44.6156 -92.4208 297° West 364 419 10,400 -1,140 Descending Minneapolis Center
05:13AM 44.6603 -92.5375 298° West 340 391 10,000 -360 Descending Minneapolis Center
05:14AM 44.6908 -92.6458 292° West 295 339 9,700 -900 Descending Minneapolis Center
05:15AM 44.7164 -92.7500 289° West 282 325 8,300 -900 Descending Minneapolis Center
05:16AM 44.7397 -92.8536 288° West 280 322 8,000 -180 Descending Minneapolis Center
05:17AM 44.7681 -92.9772 288° West 278 320 8,000  Level Minneapolis Center
05:18AM 44.7914 -93.0806 288° West 280 322 8,000 -120 Level Minneapolis Center
05:19AM 44.8150 -93.1822 288° West 281 323 7,800 -780 Descending Minneapolis Center
05:20AM 44.8403 -93.2822 290° West 279 321 6,500 -1,200 Descending Minneapolis Center
05:21AM 44.8644 -93.3822 289° West 274 315 5,400 -960 Descending Minneapolis Center
05:22AM 44.8878 -93.4783 289° West 261 300 4,600 -720 Descending Minneapolis Center
05:23AM 44.9111 -93.5619 292° West 232 267 4,000 -300 Descending Minneapolis Center
05:24AM 44.9633 -93.5381 18° North 230 265 4,000  Level Minneapolis Center
05:25AM 44.9775 -93.4600 76° East 203 234 4,000 -300 Level Minneapolis Center
05:26AM 44.9661 -93.3914 103° East 177 204 3,500 -720 Descending Minneapolis Center
05:27AM 44.9428 -93.3358 121° Southeast 165 190 2,600 -840 Descending Minneapolis Center
05:28AM 44.9225 -93.2889 121° Southeast 144 166 1,900 -720 Descending Minneapolis Center
05:29AM 44.9039 -93.2450 121° Southeast 132 152 1,200 -720 Descending Minneapolis Center
05:31AM 44.8820 -93.2218 101° East  Level Estimated
05:38AM 44.8820 -93.2218 101° East  Level Estimated